Location: Barcelona
(41.3830°N, 2.1830°E)
Time: 08:44:55
(UTC+02:00)

ISS - Pass Details

Date: 23 July 2017
Orbit: 400 x 408 km, 51.6° (Epoch: 21 July)

Event Time Altitude Azimuth Distance (km) Brightness Sun altitude
Rises 03:26:31 0° 309° (NW) 2,314 0.2 -25.2°
Reaches altitude 10° 03:29:07 10° 330° (NNW) 1,455 -0.6 -25.0°
Maximum altitude 03:31:21 17° 14° (NNE) 1,108 -0.8 -24.8°
Drops below altitude 10° 03:33:35 10° 57° (ENE) 1,455 -0.3 -24.7°
Sets 03:36:10 0° 79° (E) 2,314 0.5 -24.5°
